YA38 VQPR-VNKT

Flight info

Callsign YA38
Flight time N/A
Altitude 34000
Route VQPR SUBSU TUMLI RATAN VNKT
Aircraft A319/M-ICAO/S

Departure

Time 2026-05-01 14:39
Airport Paro International Airport (VQPR)

Arrival

Time N/A
Airport Tribhuvan International Airport (VNKT)
Time Latitude Longitude Altitude Speed Heading
2026-05-01 14:21 27.40757 89.42024 7349 ft 0 kts 242°
2026-05-01 14:29 27.40759 89.42028 7349 ft 4 kts 242°
2026-05-01 14:29 27.40777 89.42066 7350 ft 5 kts 235°
2026-05-01 14:30 27.40817 89.42070 7351 ft 0 kts 143°
2026-05-01 14:32 27.40815 89.42072 7351 ft 0 kts 147°
2026-05-01 14:33 27.40789 89.42077 7350 ft 7 kts 169°
2026-05-01 14:33 27.40717 89.42114 7349 ft 14 kts 150°
2026-05-01 14:33 27.40617 89.42178 7348 ft 18 kts 149°
2026-05-01 14:33 27.40490 89.42261 7343 ft 22 kts 149°
2026-05-01 14:34 27.40349 89.42353 7338 ft 24 kts 150°
2026-05-01 14:34 27.40194 89.42450 7333 ft 25 kts 149°
2026-05-01 14:34 27.40036 89.42552 7327 ft 27 kts 150°
2026-05-01 14:34 27.39866 89.42660 7321 ft 28 kts 151°
2026-05-01 14:35 27.39698 89.42766 7316 ft 25 kts 150°
2026-05-01 14:35 27.39541 89.42867 7311 ft 26 kts 150°
2026-05-01 14:35 27.39457 89.42921 7309 ft 0 kts 149°
2026-05-01 14:37 27.39456 89.42921 7309 ft 1 kts 149°
2026-05-01 14:37 27.39429 89.42947 7308 ft 8 kts 123°
2026-05-01 14:37 27.39443 89.43017 7307 ft 8 kts 16°
2026-05-01 14:37 27.39503 89.42996 7309 ft 9 kts 332°
2026-05-01 14:38 27.39512 89.42990 7309 ft 0 kts 332°
2026-05-01 14:38 27.39729 89.42851 7314 ft 78 kts 331°
2026-05-01 14:39 27.40435 89.42402 7342 ft 151 kts 331°
2026-05-01 14:39 27.41473 89.41752 7752 ft 182 kts 332°
2026-05-01 14:39 27.42522 89.41132 8888 ft 171 kts 334°
2026-05-01 14:39 27.43475 89.40376 9716 ft 177 kts 302°
2026-05-01 14:40 27.43684 89.39117 10462 ft 166 kts 257°
2026-05-01 14:40 27.43255 89.37992 11173 ft 153 kts 232°
2026-05-01 14:40 27.42462 89.37227 11605 ft 155 kts 204°
2026-05-01 14:40 27.41427 89.36964 12030 ft 155 kts 175°
2026-05-01 14:41 27.40351 89.37106 12484 ft 159 kts 176°
2026-05-01 14:41 27.39290 89.36948 13150 ft 160 kts 208°
2026-05-01 14:41 27.38457 89.36171 13774 ft 161 kts 228°
2026-05-01 14:41 27.37701 89.35247 14231 ft 164 kts 228°
2026-05-01 14:42 27.36905 89.34275 14504 ft 174 kts 228°
2026-05-01 14:42 27.36057 89.33232 14786 ft 186 kts 229°
2026-05-01 14:42 27.35287 89.32280 15032 ft 196 kts 229°
2026-05-01 14:42 27.34361 89.31132 15312 ft 209 kts 229°
2026-05-01 14:43 27.33352 89.29880 15600 ft 223 kts 229°
2026-05-01 14:43 27.32289 89.28561 15956 ft 233 kts 229°
2026-05-01 14:43 27.31202 89.27213 16452 ft 237 kts 229°
2026-05-01 14:43 27.30097 89.25844 16975 ft 238 kts 230°
2026-05-01 14:44 27.28978 89.24456 17457 ft 243 kts 230°
2026-05-01 14:44 27.26589 89.21486 18181 ft 267 kts 230°
2026-05-01 14:44 27.25361 89.19965 18745 ft 270 kts 230°
2026-05-01 14:45 27.24089 89.18389 19344 ft 272 kts 230°
2026-05-01 14:45 27.21563 89.15258 20468 ft 276 kts 231°
2026-05-01 14:45 27.20272 89.13658 21006 ft 278 kts 231°
2026-05-01 14:46 27.18976 89.12052 21528 ft 280 kts 231°
2026-05-01 14:46 27.16337 89.08785 22549 ft 284 kts 232°
2026-05-01 14:46 27.15012 89.07144 23042 ft 286 kts 232°
2026-05-01 14:47 27.13672 89.05486 23528 ft 288 kts 232°
2026-05-01 14:47 27.12337 89.03835 24000 ft 290 kts 232°
2026-05-01 14:47 27.10963 89.02136 24459 ft 292 kts 232°
2026-05-01 14:48 27.08226 88.98753 25271 ft 298 kts 232°
2026-05-01 14:48 27.06836 88.97034 25662 ft 302 kts 232°
2026-05-01 14:48 27.04067 88.93572 26921 ft 290 kts 225°
2026-05-01 14:49 27.01380 88.90305 27891 ft 287 kts 227°
2026-05-01 14:49 26.99055 88.86665 28568 ft 293 kts 251°
2026-05-01 14:50 26.98870 88.82892 29129 ft 302 kts 278°
2026-05-01 14:50 26.99970 88.77534 30001 ft 304 kts 280°
2026-05-01 14:51 27.00452 88.75234 30343 ft 306 kts 280°
2026-05-01 14:51 27.01419 88.70582 30997 ft 309 kts 280°
2026-05-01 14:52 27.02381 88.65914 31626 ft 311 kts 280°
2026-05-01 14:52 27.02868 88.63544 31936 ft 313 kts 280°
2026-05-01 14:52 27.03841 88.58805 32545 ft 315 kts 280°
2026-05-01 14:53 27.04334 88.56396 32842 ft 317 kts 280°
2026-05-01 14:53 27.04824 88.53998 33129 ft 318 kts 280°
2026-05-01 14:53 27.05313 88.51602 33406 ft 319 kts 280°
2026-05-01 14:53 27.05807 88.49183 33681 ft 321 kts 280°
2026-05-01 14:54 27.06305 88.46735 33846 ft 326 kts 281°
2026-05-01 14:54 27.07334 88.41676 33872 ft 344 kts 281°
2026-05-01 14:55 27.08423 88.36311 33898 ft 361 kts 281°
2026-05-01 14:55 27.09547 88.30753 33926 ft 378 kts 280°
2026-05-01 14:56 27.10734 88.24865 33950 ft 395 kts 281°
2026-05-01 14:56 27.11951 88.18832 33961 ft 400 kts 281°
2026-05-01 14:57 27.13171 88.12779 33968 ft 400 kts 281°
2026-05-01 14:57 27.15006 88.03650 33973 ft 400 kts 281°
2026-05-01 14:58 27.16220 87.97591 33975 ft 400 kts 281°
2026-05-01 14:58 27.17442 87.91478 33975 ft 400 kts 281°
2026-05-01 14:59 27.18648 87.85429 33976 ft 400 kts 281°
2026-05-01 14:59 27.19863 87.79319 33975 ft 400 kts 281°
2026-05-01 15:00 27.21665 87.70232 33975 ft 400 kts 281°
2026-05-01 15:01 27.22874 87.64114 33976 ft 400 kts 281°
2026-05-01 15:01 27.24070 87.58045 33976 ft 400 kts 281°
2026-05-01 15:02 27.25269 87.51954 33975 ft 400 kts 281°
2026-05-01 15:02 27.26459 87.45892 33976 ft 400 kts 281°
2026-05-01 15:03 27.27655 87.39793 33975 ft 400 kts 281°
2026-05-01 15:03 27.28844 87.33711 33978 ft 400 kts 280°
2026-05-01 15:04 27.30028 87.27625 33975 ft 400 kts 280°
2026-05-01 15:04 27.31206 87.21557 33975 ft 400 kts 280°
2026-05-01 15:05 27.32389 87.15498 33975 ft 400 kts 280°
2026-05-01 15:05 27.33591 87.09392 33976 ft 400 kts 280°
2026-05-01 15:06 27.34790 87.03310 33976 ft 398 kts 280°
2026-05-01 15:06 27.35976 86.97278 33976 ft 397 kts 280°
2026-05-01 15:07 27.37155 86.91260 33976 ft 396 kts 280°
2026-05-01 15:07 27.38340 86.85203 33975 ft 395 kts 279°
2026-05-01 15:08 27.39510 86.79201 33976 ft 396 kts 280°
2026-05-01 15:08 27.40677 86.73203 33976 ft 396 kts 279°
2026-05-01 15:09 27.41853 86.67149 33975 ft 396 kts 280°
2026-05-01 15:09 27.43021 86.61121 33975 ft 396 kts 279°
2026-05-01 15:10 27.44189 86.55084 33976 ft 396 kts 280°
2026-05-01 15:10 27.45935 86.46039 33975 ft 396 kts 280°
2026-05-01 15:11 27.47674 86.36975 33975 ft 395 kts 279°
2026-05-01 15:12 27.48081 86.30870 33977 ft 393 kts 266°
2026-05-01 15:12 27.47172 86.24850 33976 ft 394 kts 253°
2026-05-01 15:12 27.46234 86.21951 33976 ft 395 kts 247°
2026-05-01 15:14 27.38926 86.08926 33976 ft 396 kts 238°
2026-05-01 15:14 27.34330 86.01272 33943 ft 394 kts 238°
2026-05-01 15:15 27.31257 85.96159 32238 ft 408 kts 239°
2026-05-01 15:15 27.27984 85.90718 29262 ft 439 kts 239°
2026-05-01 15:16 27.24515 85.84965 26376 ft 459 kts 239°
2026-05-01 15:16 27.20907 85.78994 23338 ft 474 kts 239°
2026-05-01 15:17 27.17267 85.72979 21463 ft 461 kts 239°
2026-05-01 15:18 27.12524 85.63951 18634 ft 443 kts 253°
2026-05-01 15:18 27.11816 85.60651 17736 ft 436 kts 264°
2026-05-01 15:19 27.11684 85.50719 15074 ft 422 kts 272°
2026-05-01 15:19 27.11737 85.44179 13335 ft 414 kts 271°
2026-05-01 15:19 27.11743 85.41022 12502 ft 410 kts 271°
2026-05-01 15:20 27.11742 85.34711 11091 ft 389 kts 270°
2026-05-01 15:20 27.11740 85.31837 10972 ft 355 kts 271°
2026-05-01 15:20 27.11938 85.29183 10959 ft 322 kts 281°
2026-05-01 15:21 27.12472 85.26870 10958 ft 298 kts 290°
2026-05-01 15:21 27.13277 85.24797 10957 ft 280 kts 299°
2026-05-01 15:21 27.14276 85.23003 10956 ft 263 kts 307°
2026-05-01 15:21 27.15404 85.21485 10955 ft 248 kts 315°
2026-05-01 15:22 27.17904 85.19175 10960 ft 229 kts 329°
2026-05-01 15:22 27.19316 85.18296 10961 ft 230 kts 336°
2026-05-01 15:22 27.20777 85.17628 10962 ft 229 kts 342°
2026-05-01 15:23 27.22307 85.17151 10962 ft 229 kts 349°
2026-05-01 15:23 27.23886 85.16883 10962 ft 228 kts 356°
2026-05-01 15:23 27.25472 85.16828 10965 ft 228 kts
2026-05-01 15:23 27.27040 85.16982 10963 ft 228 kts
2026-05-01 15:24 27.28598 85.17348 10963 ft 228 kts 16°
2026-05-01 15:24 27.30091 85.17883 10963 ft 228 kts 18°
2026-05-01 15:24 27.31593 85.18434 10962 ft 228 kts 19°
2026-05-01 15:24 27.33046 85.19116 10963 ft 228 kts 24°
2026-05-01 15:25 27.34489 85.19846 10962 ft 228 kts 24°
2026-05-01 15:25 27.35935 85.20544 10962 ft 228 kts 22°
2026-05-01 15:25 27.37397 85.21229 10962 ft 228 kts 22°
2026-05-01 15:25 27.38863 85.21905 10962 ft 228 kts 22°
2026-05-01 15:26 27.40323 85.22572 10962 ft 228 kts 22°
2026-05-01 15:26 27.41766 85.23229 10955 ft 221 kts 22°
2026-05-01 15:26 27.43146 85.23857 10949 ft 208 kts 22°
2026-05-01 15:26 27.44471 85.24451 10957 ft 203 kts 18°
2026-05-01 15:27 27.45817 85.24791 10731 ft 199 kts
2026-05-01 15:27 27.47197 85.24741 10289 ft 202 kts 351°
2026-05-01 15:27 27.48510 85.24384 10074 ft 186 kts 346°
2026-05-01 15:28 27.50823 85.23695 9516 ft 159 kts 351°
2026-05-01 15:28 27.51882 85.23568 9214 ft 150 kts
2026-05-01 15:28 27.52894 85.23630 8833 ft 148 kts
2026-05-01 15:29 27.54845 85.24275 8023 ft 146 kts 26°
2026-05-01 15:29 27.55723 85.24837 7622 ft 146 kts 35°
2026-05-01 15:29 27.57274 85.26257 6836 ft 144 kts 41°
2026-05-01 15:30 27.58719 85.27776 6068 ft 142 kts 50°
2026-05-01 15:31 27.61332 85.31464 6071 ft 183 kts 40°
2026-05-01 15:31 27.63552 85.33150 5440 ft 187 kts 28°
2026-05-01 15:32 27.65797 85.34139 4843 ft 159 kts 25°
2026-05-01 15:32 27.67639 85.34982 4535 ft 137 kts 25°
2026-05-01 15:33 27.69857 85.36009 4393 ft 59 kts 19°
2026-05-01 15:34 27.70126 85.36014 4399 ft 8 kts 200°